This demonstration page uses our WeatherBlox Daily Observations layout. Learn more.

Left ArrowRight Arrow

39.51506, -84.39828

Hourly Observations for June 10, 2020

Temp ( °F °C ) Dew Point ( °F °C ) Humidity (%) Winds ( mph kmh ) Pressure ( in mb ) Visibility ( mi km ) Precip ( " mm )
12:15 am 00:15 Clear N/A N/A N/A SSW 13 20 N/A 10 16.0934 0 0
12:35 am 00:35 Clear 79 26 70 21 74 74 SSW 14 22 29.76 1008 10 16.0934 0 0
12:55 am 00:55 Clear N/A N/A N/A SSW 13 20 N/A 10 16.0934 0 0
1:15 am 01:15 Partly Cloudy N/A N/A N/A SW 15 24 N/A 10 16.0934 0 0
1:35 am 01:35 Cloudy N/A N/A N/A SSW 16 26 N/A 10 16.0934 0 0
1:55 am 01:55 Partly Cloudy N/A N/A N/A SSW 16 26 N/A 10 16.0934 0 0
2:15 am 02:15 Clear 79 26 72 22 79 79 SW 16 26 29.74 1007 10 16.0934 0 0
2:35 am 02:35 Clear N/A N/A N/A SSW 16 26 N/A 10 16.0934 0 0
2:55 am 02:55 Clear 77 25 72 22 83 83 SSW 17 28 29.73 1007 10 16.0934 0 0
3:15 am 03:15 Clear 79 26 72 22 79 79 SSW 14 22 29.72 1006 10 16.0934 0 0
3:35 am 03:35 Partly Cloudy 77 25 72 22 83 83 SSW 14 22 29.73 1007 10 16.0934 0 0
3:55 am 03:55 Cloudy N/A N/A N/A SSW 13 20 N/A 10 16.0934 0 0
4:15 am 04:15 Cloudy N/A N/A N/A SSW 13 20 N/A 10 16.0934 0 0
4:35 am 04:35 Cloudy N/A N/A N/A SW 10 17 N/A 10 16.0934 0 0
4:55 am 04:55 Cloudy 77 25 72 22 83 83 SSW 13 20 29.72 1007 10 16.0934 0 0
5:15 am 05:15 Cloudy N/A N/A N/A SSW 10 17 N/A 10 16.0934 0 0
5:35 am 05:35 Cloudy 77 25.2 72 22.4 85 85 SSW 8 13 29.72 1007 10 16.0934 0 0
5:55 am 05:55 Cloudy 77 25.2 72 22.4 85 85 SSW 12 19 29.72 1007 10 16.0934 0 0
6:15 am 06:15 Cloudy 77 25 72 22 83 83 SSW 13 20 29.73 1007 10 16.0934 0 0
6:35 am 06:35 Mostly Cloudy 77 24.9 72 22.4 86 86 SSW 14 22 29.73 1007 10 16.0934 0 0
6:55 am 06:55 Mostly Cloudy N/A N/A N/A SSW 10 17 N/A 10 16.0934 0 0
7:15 am 07:15 Mostly Cloudy N/A N/A N/A SW 9 15 N/A 10 16.0934 0 0
7:35 am 07:35 Cloudy 77 25.2 73 22.6 86 86 SSW 13 20 29.74 1007 10 16.0934 0 0
7:55 am 07:55 Cloudy N/A N/A N/A SSW 13 20 N/A 10 16.0934 0 0
8:15 am 08:15 Cloudy 77 25 73 23 89 89 SW 12 19 29.74 1007 10 16.0934 0 0
8:35 am 08:35 Mostly Cloudy N/A N/A N/A SSW 13 20 N/A 10 16.0934 0 0
8:55 am 08:55 Cloudy N/A N/A N/A SSW 15 24 N/A 10 16.0934 0 0
9:15 am 09:15 Mostly Cloudy N/A N/A N/A SSW 15 24 N/A 10 16.0934 0 0
9:35 am 09:35 Cloudy N/A N/A N/A SSW 14 22 N/A 10 16.0934 0 0
9:55 am 09:55 Cloudy 79 26 73 23 84 84 S 13 20 29.72 1006 10 16.0934 0 0
10:15 am 10:15 Cloudy 79 26 73 23 84 84 S 13 20 29.72 1006 10 16.0934 0 0
10:35 am 10:35 Cloudy N/A N/A N/A S 14 22 N/A 10 16.0934 0 0
10:55 am 10:55 Cloudy N/A N/A N/A S 15 24 N/A 10 16.0934 0 0
11:15 am 11:15 Cloudy N/A N/A N/A S 15 24 N/A 10 16.0934 0 0
11:35 am 11:35 Cloudy N/A N/A N/A S 8 13 N/A 10 16.0934 0 0
11:55 am 11:55 Cloudy 81 27.3 74 23.6 80 80 SSE 12 19 29.7 1006 10 16.0934 0 0
12:15 pm 12:15 Cloudy 82 28 75 24 79 79 S 13 20 29.69 1005 10 16.0934 0 0
12:35 pm 12:35 Cloudy N/A N/A N/A S 16 26 N/A 10 16.0934 0 0
12:55 pm 12:55 Cloudy N/A N/A N/A S 14 22 N/A 10 16.0934 0 0
1:15 pm 13:15 Mostly Cloudy 84 29 75 24 74 74 S 17 28 29.66 1005 10 16.0934 0 0
1:35 pm 13:35 Mostly Cloudy N/A N/A N/A SSW 21 33 N/A 10 16.0934 0 0
1:55 pm 13:55 Partly Cloudy N/A N/A N/A SSW 23 37 N/A 10 16.0934 0 0
2:15 pm 14:15 Partly Cloudy N/A N/A N/A SSW 21 33 N/A 10 16.0934 0 0
2:35 pm 14:35 Partly Cloudy N/A N/A N/A SSW 16 26 N/A 10 16.0934 0 0
2:55 pm 14:55 Mostly Cloudy N/A N/A N/A SSW 17 28 N/A 10 16.0934 0 0
3:15 pm 15:15 Partly Cloudy N/A N/A N/A SSW 20 31 N/A 10 16.0934 0 0
3:35 pm 15:35 Partly Cloudy N/A N/A N/A SSW 21 33 N/A 10 16.0934 0 0
3:55 pm 15:55 Mostly Cloudy N/A N/A N/A SSW 23 37 N/A 10 16.0934 0 0
4:15 pm 16:15 Mostly Cloudy with Thunderstorms N/A N/A N/A S 12 19 N/A 7 11.26538 0 0
4:35 pm 16:35 Cloudy with Mist and Fog N/A N/A N/A SW 24 39 N/A 3 4.82802 0.12 3.048
4:55 pm 16:55 Mostly Cloudy with Rain 77 25 72 22 83 83 SW 22 35 29.62 1003 10 16.0934 0.37 9.398
5:15 pm 17:15 Sunny N/A N/A N/A SW 10 17 N/A 10 16.0934 0 0
5:35 pm 17:35 Sunny N/A N/A N/A SSW 8 13 N/A 10 16.0934 0 0
5:55 pm 17:55 Sunny N/A N/A N/A SW 12 19 N/A 10 16.0934 0 0
6:15 pm 18:15 Sunny N/A N/A N/A WSW 23 37 N/A 10 16.0934 0 0
6:35 pm 18:35 Sunny 86 30 61 16 43 43 WSW 24 39 29.6 1002 10 16.0934 0 0
6:55 pm 18:55 Sunny N/A N/A N/A WSW 22 35 N/A 10 16.0934 0 0
7:15 pm 19:15 Sunny N/A N/A N/A W 16 26 N/A 10 16.0934 0 0
7:35 pm 19:35 Mostly Cloudy 82 28 59 15 45 45 W 25 41 29.67 1005 10 16.0934 0 0
7:55 pm 19:55 Mostly Cloudy N/A N/A N/A W 22 35 N/A 10 16.0934 0 0
8:15 pm 20:15 Partly Cloudy N/A N/A N/A W 22 35 N/A 10 16.0934 0 0
8:35 pm 20:35 Sunny N/A N/A N/A W 21 33 N/A 10 16.0934 0 0
8:55 pm 20:55 Sunny N/A N/A N/A W 21 33 N/A 10 16.0934 0 0
9:15 pm 21:15 Mostly Cloudy N/A N/A N/A W 22 35 N/A 10 16.0934 0 0
9:35 pm 21:35 Mostly Cloudy N/A N/A N/A W 16 26 N/A 10 16.0934 0 0
9:55 pm 21:55 Partly Cloudy N/A N/A N/A W 14 22 N/A 10 16.0934 0 0
10:15 pm 22:15 Mostly Cloudy N/A N/A N/A WSW 9 15 N/A 10 16.0934 0 0
10:35 pm 22:35 Clear 71 21.9 58 14.4 63 63 WSW 15 24 29.82 1010 10 16.0934 0 0
10:55 pm 22:55 Partly Cloudy 71 21.9 58 14.4 63 63 WSW 15 24 29.82 1010 10 16.0934 0 0
11:15 pm 23:15 Mostly Cloudy N/A N/A N/A WSW 13 20 N/A 10 16.0934 0 0
11:35 pm 23:35 Mostly Cloudy 72 22 57 14 61 61 WSW 9 15 29.84 1010 10 16.0934 0 0
11:55 pm 23:55 Partly Cloudy 71 21.7 58 14.5 64 64 WSW 10 17 29.85 1011 10 16.0934 0 0

Powered by AerisWeather